Flag for Senegal Weather past 2 weeks in Thiès, Senegal

Now
66 °F

Clear.


Feels Like: 66 °F
Forecast: N/A
Wind: 8 mph from Northwest

Location: Dakar / Yoff

Current Time: Mar 5, 2015 at 10:42:15 PM

Latest Report: Mar 5, 2015 at 10:00 PM


Visibility: 6 mi

Pressure: 29.89 "Hg

Humidity: 94%

Dew point: 64 °F

Location of ThièsLocation

Historic Weather in Thiès — Graph

°F

Thiès temperature yesterday

Maximum temperature yesterday: 79 °F (at 3:00 PM)
Minimum temperature yesterday: 66 °F (at 3:00 AM)
Average temperature yesterday: 71 °F

Past Weeks' High & Low Weather Summary

 TemperatureHumidityPressure
High91 °F (Mar 3, 12:30 PM)94% (Feb 25, 8:00 AM)30.04 "Hg (Feb 25, 8:00 AM)
Low61 °F (Feb 21, 6:00 AM)14% (Mar 3, 12:30 PM)29.77 "Hg (Feb 26, 3:30 PM)
Average69 °F64%29.91 "Hg
* Reported Feb 18 9:00 PM — Mar 5 9:00 PM, Thiès, Weather by CustomWeather, © 2015

Note: Actual official high and low records may vary slightly from our data, if they occured in-between our weather recording intervals... More about our weather records

Advertising

Thiès weather history for previous 24 hours

 ConditionsComfort  
Time TempWeatherWind HumidityBarometerVisibility
9:00 PM
Thu, Mar 5
66 °FClear.9 mph94%29.86 "Hg10 mi
8:30 PM68 °FClear.9 mph88%29.86 "Hg10 mi
8:00 PM68 °FPassing clouds.10 mph88%29.86 "HgN/A
7:30 PM68 °FPassing clouds.9 mph88%29.83 "HgN/A
7:00 PM70 °FSunny.9 mph83%29.83 "Hg10 mi
6:30 PM70 °FSunny.13 mph78%29.83 "Hg10 mi
6:00 PM72 °FSunny.10 mph73%29.83 "Hg10 mi
5:30 PM72 °FPassing clouds.12 mph73%29.83 "HgN/A
5:00 PM72 °FSunny.13 mph73%29.83 "Hg10 mi
4:30 PM73 °FSunny.13 mph65%29.83 "Hg10 mi
4:00 PM73 °FPassing clouds.10 mph65%29.83 "HgN/A
3:30 PM75 °FPassing clouds.12 mph61%29.86 "HgN/A
3:00 PM73 °FSunny.14 mph65%29.86 "Hg10 mi
2:30 PM75 °FClear.14 mph57%29.86 "Hg5 mi
2:00 PM75 °FClear.13 mph54%29.89 "Hg5 mi
1:30 PM75 °FClear.13 mph54%29.89 "Hg5 mi
1:00 PM75 °FClear.12 mph50%29.89 "Hg5 mi
12:30 PM75 °FClear.13 mph54%29.92 "Hg5 mi
12:00 PM73 °FClear.13 mph57%29.92 "Hg5 mi
11:30 AM73 °FClear.13 mph57%29.92 "Hg5 mi
11:00 AM73 °FClear.14 mph57%29.92 "Hg5 mi
10:30 AM72 °FClear.13 mph65%29.92 "Hg5 mi
10:00 AM70 °FClear.13 mph64%29.92 "Hg5 mi
9:30 AM68 °FClear.12 mph73%29.92 "Hg5 mi
9:00 AM66 °FClear.9 mph78%29.92 "Hg5 mi
8:30 AM66 °FClear.8 mph78%29.89 "Hg5 mi
8:00 AM64 °FClear.9 mph83%29.89 "Hg5 mi
7:30 AM64 °FClear.9 mph83%29.89 "Hg5 mi
7:00 AM64 °FClear.9 mph83%29.89 "Hg5 mi
6:30 AM64 °FClear.9 mph78%29.89 "Hg5 mi
6:00 AM64 °FClear.8 mph78%29.86 "Hg5 mi
5:30 AM64 °FClear.9 mph78%29.86 "Hg5 mi
5:00 AM64 °FClear.9 mph78%29.86 "Hg5 mi
4:30 AM64 °FClear.7 mph78%29.86 "Hg5 mi
3:30 AM64 °FClear.8 mph83%29.86 "Hg5 mi
3:00 AM64 °FClear.7 mph83%29.86 "Hg5 mi
2:00 AM66 °FClear.9 mph73%29.86 "Hg5 mi
1:30 AM66 °FClear.8 mph73%29.89 "Hg5 mi
1:00 AM68 °FClear.9 mph69%29.89 "Hg5 mi
12:30 AM68 °FClear.8 mph69%29.89 "Hg5 mi
12:00 AM68 °FClear.6 mph69%29.89 "Hg5 mi
11:30 PM
Wed, Mar 4
68 °FClear.7 mph69%29.89 "Hg5 mi
11:00 PM70 °FClear.8 mph60%29.89 "Hg5 mi
10:30 PM68 °FClear.6 mph69%29.89 "Hg5 mi
10:00 PM68 °FClear.7 mph69%29.89 "Hg5 mi
Weather by CustomWeather, © 2015

See weather overviewHow to use our weather pages